Wind_Speed
59 59 60 60 59 58 56 54 53 52 52 55 56 55 52 53 58 55 49 48 47 42 40 38 29 22 22 29 37 43 47 50 48 44 43 43 44 42 41 41 42 39 37 36 34 32 30 28 27 26 26 26 25 24 23 22 22 21 21 21 21 21 21 22 23 24 25 26 26 28 30 32 34 35 36 38 41 43 46 50 54 57 59 61 63 67 75
62 61 62 62 62 62 60 58 57 56 55 56 55 54 53 56 58 55 51 51 47 43 40 31 22 21 26 32 37 41 45 48 48 47 47 46 45 43 41 42 43 42 40 38 35 33 32 30 28 27 28 28 27 26 26 25 24 24 23 23 22 22 23 23 24 25 26 27 29 30 32 34 36 37 39 40 42 45 48 52 55 58 60 61 61 65 72
64 64 64 64 65 65 63 61 59 58 57 56 56 56 56 58 59 55 51 52 50 43 35 27 24 28 34 36 35 38 44 48 49 50 49 45 41 39 39 42 43 43 42 39 36 34 33 32 31 29 29 29 29 28 28 27 27 26 25 25 24 24 24 24 25 26 28 29 30 32 33 36 37 39 40 42 44 47 50 53 57 60 61 60 59 61 67
63 61 64 66 66 66 68 66 61 59 57 57 57 57 57 58 57 54 52 54 48 38 31 32 34 35 36 37 36 38 44 49 51 52 49 43 38 37 38 41 42 42 41 38 36 36 36 34 33 32 30 30 30 29 29 29 29 28 27 26 26 26 26 26 27 28 29 30 32 33 35 37 39 40 42 43 45 48 51 54 58 60 60 58 56 57 61
60 57 61 64 65 70 72 66 59 57 56 55 57 58 58 58 57 55 55 51 43 38 39 40 39 37 37 37 37 39 44 50 54 52 46 41 39 38 40 41 42 41 40 39 38 38 38 36 35 34 33 31 31 31 30 31 30 29 29 28 28 27 27 28 28 29 30 31 33 34 36 38 40 42 44 45 47 49 52 55 58 59 57 55 54 55 58
61 59 61 63 69 75 70 58 53 54 54 57 61 61 59 59 59 56 53 48 44 44 44 42 40 41 41 40 40 42 46 51 55 50 42 38 39 41 43 44 43 43 43 43 42 40 39 38 36 36 35 33 32 32 31 31 31 30 30 30 29 29 28 29 30 30 31 32 34 35 37 39 41 43 45 46 48 50 52 55 57 57 55 55 56 58 60
63 61 63 68 75 74 63 54 55 56 56 61 64 61 58 58 57 53 50 47 45 45 44 42 42 43 43 44 45 47 49 51 51 46 40 39 40 42 42 43 44 45 45 45 43 41 40 40 38 37 36 35 34 32 32 32 32 31 31 31 30 30 30 30 30 31 32 33 34 36 38 40 42 44 45 47 48 50 53 55 55 56 56 59 61 62 62
63 63 67 72 74 69 62 60 61 60 59 61 63 60 56 53 51 49 47 45 43 43 42 41 40 41 44 47 49 49 50 48 45 43 42 43 44 42 41 43 44 44 44 44 43 42 42 41 39 38 37 36 35 33 33 33 33 32 32 32 31 31 31 31 31 32 32 33 34 36 38 40 42 44 46 47 48 50 52 53 54 56 57 60 62 62 60
65 65 68 69 68 66 65 63 60 58 59 60 62 62 55 50 49 48 46 44 41 40 39 38 38 42 46 49 47 45 43 42 43 46 45 44 44 42 41 43 44 43 44 44 44 44 44 43 40 39 38 37 36 35 34 34 33 33 33 32 32 31 32 32 32 33 33 33 34 36 38 40 42 45 46 47 48 49 51 52 53 54 55 56 57 56 54
67 66 65 66 69 69 65 58 55 57 60 60 63 65 58 50 49 49 47 45 42 41 41 39 39 44 48 45 38 34 38 42 46 47 44 42 41 40 41 42 43 43 44 45 45 46 45 44 42 40 40 39 37 36 35 35 34 34 33 33 32 32 33 33 33 34 34 34 34 36 38 40 42 44 46 47 47 48 50 51 52 51 49 48 47 47 47
67 66 65 66 70 69 61 55 54 59 62 61 64 68 60 51 50 50 47 46 45 43 44 43 43 46 47 38 29 31 38 44 45 43 41 40 39 39 40 41 41 42 44 45 45 45 44 43 43 43 42 40 39 37 36 36 35 34 34 33 32 32 34 34 34 35 35 35 35 36 38 40 42 44 46 46 47 48 49 51 51 48 43 39 38 39 41
70 69 68 68 70 68 62 59 59 61 61 62 68 70 59 50 54 54 47 44 44 44 46 47 47 46 43 37 35 38 39 40 41 40 39 40 40 39 40 41 41 41 42 43 43 43 43 45 45 44 42 40 38 38 38 37 36 34 34 33 33 33 34 35 35 35 35 35 35 35 37 40 41 43 45 45 45 46 48 49 49 44 37 33 32 34 38
72 72 71 70 70 68 63 62 63 63 62 65 71 67 56 54 60 55 44 40 41 44 48 49 47 45 43 42 42 41 38 38 39 40 39 40 41 40 40 40 39 39 39 39 40 41 42 43 42 41 40 39 39 39 39 38 37 35 34 34 34 34 35 35 36 35 35 35 35 35 37 39 40 41 43 44 44 44 46 48 47 40 32 28 29 32 36
73 73 72 71 71 68 64 63 65 66 68 70 68 62 59 62 62 52 44 41 43 47 50 50 49 47 44 43 43 41 40 39 38 37 35 34 34 35 35 35 35 35 35 35 35 36 37 38 37 37 37 37 38 39 38 39 39 37 35 34 33 34 35 35 35 35 35 35 35 35 36 38 39 40 41 42 42 42 43 45 43 36 27 24 26 30 35
75 73 72 72 68 64 63 65 67 70 73 72 66 63 64 65 58 50 48 48 49 52 51 50 51 49 46 45 45 43 42 41 39 37 34 30 29 30 32 33 33 33 33 31 30 31 32 33 34 35 35 36 37 38 38 40 41 39 37 35 33 34 35 35 34 35 35 35 35 35 36 37 38 38 39 40 40 40 40 42 40 32 23 20 24 29 35
77 76 75 73 64 55 56 64 68 70 72 69 66 66 67 64 58 53 52 53 54 55 53 52 53 51 48 48 46 45 44 42 41 40 38 35 34 32 32 33 33 32 30 29 28 28 29 30 31 32 33 34 35 36 37 39 40 38 36 35 33 33 34 34 34 35 35 35 35 35 35 37 37 36 36 37 38 38 38 38 36 28 19 17 21 27 35
81 77 73 69 61 50 51 60 66 68 69 69 69 69 68 67 64 59 57 56 55 54 54 55 55 53 52 50 48 47 46 44 43 43 42 41 39 36 35 35 34 31 30 28 28 28 28 29 29 30 31 31 32 33 34 35 36 35 34 33 33 33 34 35 35 35 36 36 36 35 35 35 36 35 34 35 36 36 35 35 33 26 16 13 18 25 34
81 76 72 69 62 51 48 54 61 65 67 70 71 70 69 70 68 64 61 59 55 54 55 56 56 56 54 53 51 49 48 46 46 44 43 42 41 38 38 37 35 32 30 29 29 29 29 29 29 30 30 30 30 31 32 32 33 34 33 33 33 33 33 34 35 36 37 37 37 35 34 34 34 33 32 32 33 33 33 32 29 24 15 11 16 23 32
82 80 78 72 64 55 49 48 53 60 63 65 68 69 69 70 71 69 66 61 57 56 56 57 57 57 56 55 54 52 50 50 49 47 45 43 42 40 40 40 38 34 31 30 31 30 30 30 30 31 31 31 30 30 30 31 32 32 33 34 35 35 33 33 35 36 37 38 37 35 34 33 32 31 30 29 29 30 30 30 27 23 15 10 15 22 30
79 81 80 74 68 63 57 49 49 55 60 62 63 65 68 71 73 72 69 64 60 57 58 58 58 57 57 56 56 55 53 52 50 48 46 43 42 42 41 41 39 36 33 32 33 33 33 33 32 33 33 32 31 31 31 31 32 32 33 34 36 37 35 34 35 36 37 38 38 35 33 32 30 29 28 27 27 27 27 27 25 22 16 11 15 23 30
74 75 77 76 74 70 64 55 49 49 53 56 56 59 65 71 74 75 73 69 64 60 58 59 60 59 59 58 57 57 55 52 50 48 45 43 42 42 40 39 38 36 35 34 35 35 36 35 35 35 34 33 33 32 32 32 33 33 34 35 36 37 37 37 37 37 37 37 37 34 32 31 29 27 26 25 24 24 24 25 24 21 16 13 16 26 34
72 74 76 79 79 76 69 61 54 49 49 51 52 55 62 69 73 73 72 70 67 64 61 60 61 61 60 59 58 57 54 51 49 47 45 43 42 41 41 40 39 38 38 37 36 37 37 37 37 36 35 35 34 33 33 34 34 35 35 35 36 37 37 37 37 36 35 35 36 34 32 30 28 26 24 23 22 21 21 22 22 20 15 13 15 25 38
66 69 73 76 79 79 73 66 62 60 58 57 55 55 59 65 68 66 64 65 67 67 66 64 63 61 59 58 57 55 53 52 50 48 46 45 45 44 43 42 41 40 39 37 37 38 38 38 37 36 36 36 36 35 35 36 36 37 37 36 36 37 36 36 35 34 33 34 35 34 31 30 29 26 24 22 21 20 19 18 20 19 15 13 13 21 37
58 58 61 66 72 78 76 71 68 66 66 66 63 57 56 61 65 63 61 63 66 68 68 66 64 63 62 60 58 56 54 53 52 50 49 49 48 47 46 44 42 40 38 37 37 38 38 38 37 37 37 37 37 37 37 38 39 39 39 38 37 37 37 36 35 33 32 32 34 34 32 30 29 27 24 22 20 19 17 16 16 17 15 12 11 17 31
62 57 54 57 63 69 72 71 70 68 67 68 66 60 56 59 62 62 62 63 65 67 68 68 67 66 66 64 63 61 60 57 56 55 53 51 50 48 46 45 43 41 39 37 35 35 36 38 38 38 39 39 39 38 38 39 40 41 40 39 38 37 37 37 35 33 32 32 34 35 34 32 30 28 26 24 21 19 17 15 14 15 14 12 11 15 24
66 63 59 59 60 62 65 69 70 68 67 67 65 61 57 55 55 57 59 62 63 65 67 69 68 67 67 67 66 66 65 63 61 59 57 54 52 49 47 46 45 43 41 38 36 35 37 38 39 40 41 41 40 39 39 39 41 41 42 41 40 38 37 37 36 35 33 32 34 36 35 33 31 30 28 26 23 20 18 16 14 14 13 12 12 16 22
62 63 63 64 63 60 61 66 69 67 65 66 66 62 56 51 50 52 55 59 61 63 66 68 69 69 68 67 67 67 67 66 64 62 60 57 54 52 50 48 46 45 43 41 39 38 38 38 40 41 42 42 41 40 40 40 41 41 42 42 42 41 39 38 37 37 35 33 34 36 37 36 34 32 30 28 25 22 20 19 17 15 14 14 14 16 22
57 58 60 64 66 62 58 60 62 63 62 64 66 64 57 50 48 50 52 55 57 58 60 62 66 68 69 68 68 68 67 66 65 64 62 59 57 54 51 49 48 47 46 44 41 39 38 39 40 42 43 44 44 43 42 42 41 42 43 43 43 43 41 39 39 39 38 36 35 37 39 39 37 34 31 29 28 25 22 21 19 17 16 16 16 17 22
56 55 55 58 62 62 59 57 58 59 60 61 64 65 63 57 52 51 51 53 54 55 55 57 60 63 66 68 70 70 69 68 67 65 63 62 59 55 52 50 49 48 48 46 44 42 40 40 41 42 45 46 46 45 45 44 43 43 44 44 45 45 44 42 41 41 41 39 37 37 40 41 40 37 33 30 30 29 26 24 23 21 19 17 17 17 20
56 56 54 52 53 56 58 57 55 54 55 56 59 62 65 64 61 56 53 52 52 53 53 53 55 57 59 62 65 67 68 68 67 66 64 61 58 54 50 48 48 48 48 46 45 43 41 40 40 42 45 46 47 47 46 46 45 45 45 45 46 46 46 44 43 42 43 42 39 38 40 42 42 40 36 33 32 31 30 28 27 26 23 20 19 19 20
53 54 55 53 51 51 53 55 54 51 51 51 53 55 59 63 65 63 60 58 56 54 53 53 54 54 54 56 58 61 63 64 64 63 61 58 55 52 49 48 48 48 47 46 45 43 41 39 39 41 43 45 47 47 47 48 47 46 46 46 47 47 47 46 45 45 45 44 42 40 40 42 44 43 40 37 34 33 33 33 31 30 29 25 22 22 24
53 52 54 56 55 54 53 54 54 52 50 49 48 48 49 54 59 63 64 64 63 61 59 57 56 54 53 53 53 55 57 59 59 58 57 55 54 52 50 49 48 46 46 46 45 44 41 39 39 40 42 44 47 48 48 49 49 48 48 48 48 48 48 47 47 46 46 46 45 43 41 42 44 45 44 41 38 35 35 36 36 35 33 31 28 28 29
59 57 56 57 58 57 56 55 54 53 53 51 50 48 48 49 53 57 61 64 65 64 64 63 61 59 57 55 53 52 53 55 56 56 56 55 55 54 52 51 49 46 45 44 44 43 43 42 41 41 42 44 47 49 50 49 50 50 50 50 50 50 49 48 47 46 46 46 47 45 43 42 43 45 45 44 42 40 38 38 38 38 38 36 35 34 34
66 64 63 62 61 59 58 57 56 55 55 55 54 53 52 51 51 54 58 60 62 62 63 64 64 63 62 61 59 56 55 54 55 55 56 56 56 55 53 51 49 47 45 44 44 43 43 43 42 42 42 44 47 50 52 52 52 53 53 53 52 50 49 48 47 46 46 47 48 47 46 43 43 44 45 45 45 44 42 40 40 41 41 41 40 40 39
72 69 68 68 67 65 63 62 60 59 59 59 58 57 55 54 52 53 55 57 59 59 60 61 62 64 65 66 65 63 60 58 56 55 55 56 56 55 54 52 51 49 47 46 45 44 44 43 43 42 42 44 46 49 52 54 55 56 57 56 54 51 49 49 48 47 48 49 49 48 47 45 43 43 44 45 46 46 46 44 42 41 42 43 45 44 44
76 73 71 71 71 70 68 67 65 62 61 60 60 58 57 55 53 53 54 55 56 57 57 57 58 60 62 65 67 67 65 63 60 58 56 55 54 54 55 54 53 52 51 49 47 46 45 46 45 45 44 44 46 49 53 56 57 59 58 57 55 53 50 49 49 49 50 51 50 49 48 46 44 43 43 43 44 46 46 46 46 45 44 45 46 47 48
81 77 74 72 71 71 71 70 69 66 64 63 63 62 62 61 60 59 60 61 61 61 61 60 59 59 60 62 64 66 67 67 65 63 61 58 56 56 56 55 54 53 52 51 50 50 49 49 48 47 46 46 46 49 53 56 57 58 59 58 57 54 52 50 50 51 52 53 52 51 50 48 45 43 42 42 43 44 45 45 46 47 48 49 49 48 48
88 84 79 75 73 71 72 72 72 70 67 66 65 65 64 65 64 64 63 65 66 66 66 65 63 62 61 61 62 63 64 65 65 65 64 63 61 60 59 58 56 54 53 52 53 54 55 53 50 48 47 47 47 49 53 56 56 56 57 57 57 56 54 52 51 51 51 52 52 51 51 50 47 44 43 42 42 43 44 43 43 43 45 48 51 51 49
88 90 87 83 79 75 73 72 71 70 67 64 63 61 60 60 62 63 63 64 64 64 64 63 62 61 61 61 61 62 62 63 63 64 64 64 64 63 62 61 60 59 58 57 57 58 59 58 55 51 48 47 46 48 52 56 58 57 55 54 55 55 55 54 53 52 51 51 50 50 50 50 49 46 45 43 43 43 43 42 42 43 44 46 48 49 50
71 82 88 90 88 84 79 75 72 69 66 64 63 61 59 59 60 61 61 61 61 61 61 61 61 61 61 61 61 61 61 61 62 62 62 63 63 63 63 62 62 62 62 62 62 62 63 62 59 56 53 49 47 47 50 54 58 59 58 55 54 55 56 56 55 54 52 51 50 49 49 50 50 49 47 45 44 43 42 41 40 42 44 46 47 48 49
47 60 73 83 89 90 88 84 79 75 72 69 67 65 63 61 60 60 60 61 61 61 61 61 61 61 61 61 60 60 60 61 60 60 61 62 63 63 62 62 62 62 62 62 63 64 65 65 64 62 59 56 52 50 50 52 55 57 58 57 56 57 57 58 57 56 54 53 52 50 49 49 49 50 48 46 44 43 43 43 42 41 41 43 46 46 47
33 41 51 63 75 84 89 90 88 85 81 78 75 72 69 66 64 62 61 61 61 62 61 61 61 61 61 61 60 60 60 60 60 58 57 57 58 59 58 58 58 58 59 60 62 63 65 66 66 66 65 63 60 57 55 54 54 55 56 57 57 57 58 58 58 57 55 54 53 52 50 49 47 47 48 47 46 45 45 44 44 43 42 41 41 42 42
29 31 36 43 52 62 73 81 87 89 90 88 85 81 77 74 71 69 66 63 62 62 62 62 61 61 61 62 62 62 61 61 61 60 59 58 57 56 55 54 53 53 55 57 60 62 65 66 66 67 67 67 65 62 60 59 59 58 58 59 59 57 56 57 58 57 55 55 54 53 52 51 50 48 47 47 47 48 48 46 45 45 44 43 42 41 40
31 29 29 30 33 40 49 58 68 76 83 88 91 90 88 84 80 76 73 69 66 65 64 64 63 62 62 61 62 63 63 63 62 61 61 61 59 57 55 55 54 53 53 55 56 58 60 63 65 67 68 68 67 65 63 62 62 62 61 61 61 59 56 55 56 56 55 55 55 55 54 53 52 51 50 49 48 48 48 48 48 47 46 45 44 42 40
38 36 34 30 27 28 33 39 46 54 62 70 78 85 90 92 91 87 83 80 77 73 70 68 67 66 65 64 63 63 64 65 64 62 61 62 62 60 58 58 58 57 56 56 56 55 53 53 55 56 57 58 59 59 59 59 60 61 62 63 63 61 56 52 52 54 55 54 55 55 56 55 54 52 51 51 51 50 50 49 49 49 48 47 46 44 43
37 38 39 38 34 31 29 30 33 38 44 50 56 62 70 79 85 88 89 90 89 87 83 79 75 73 71 70 69 67 66 67 67 66 64 63 64 63 62 61 61 60 59 58 58 57 55 54 53 53 52 51 51 51 52 52 53 55 57 59 61 61 57 52 49 50 53 54 55 56 56 56 56 55 53 52 52 52 52 51 51 50 48 47 46 45 44
34 34 36 38 39 38 37 34 32 32 34 38 42 46 50 56 63 70 76 81 86 89 90 89 88 85 81 78 76 74 72 71 71 71 70 68 68 67 66 64 64 64 63 62 61 61 59 58 58 57 56 55 53 52 52 52 52 53 53 54 55 56 55 52 49 48 49 51 53 56 57 57 57 56 56 55 53 53 53 53 53 52 50 49 47 46 44
35 34 34 35 36 38 39 40 38 36 35 34 35 36 39 42 47 52 57 63 69 74 79 84 89 91 90 88 86 84 82 80 78 77 76 75 74 74 73 72 71 71 70 69 68 68 66 65 65 64 63 62 60 58 57 56 56 56 56 56 56 56 55 54 53 51 50 50 51 53 56 58 59 58 58 57 56 55 55 55 55 54 54 53 51 50 48
35 35 34 35 35 35 36 38 39 40 39 39 37 36 35 36 38 42 45 49 53 57 62 67 74 81 86 88 88 87 86 86 85 85 84 83 81 81 80 80 79 79 78 77 77 76 76 76 76 75 75 75 75 73 72 69 67 65 63 62 62 62 61 60 58 57 56 56 55 54 55 57 59 61 60 60 59 58 57 57 57 57 57 56 55 54 53
33 34 33 32 32 32 33 34 36 37 37 38 39 39 39 37 37 38 39 42 44 47 50 53 57 62 67 72 75 76 76 77 80 82 84 85 85 85 85 85 85 84 84 82 82 82 83 84 85 86 87 86 86 86 85 83 81 78 75 72 71 70 69 68 66 64 62 61 61 60 59 59 59 61 62 63 63 63 62 61 60 60 59 59 58 57 57
27 29 30 30 29 29 29 30 32 34 34 35 36 37 38 39 39 39 39 40 41 42 44 45 47 50 53 56 60 62 64 66 69 72 75 77 79 82 84 85 86 87 87 87 86 85 86 87 89 92 94 94 92 91 90 88 87 85 84 82 79 78 77 76 75 73 71 68 66 66 65 65 64 63 64 65 65 66 66 66 65 64 62 62 61 61 60
23 25 27 28 29 29 29 30 30 31 32 33 34 34 35 37 38 40 41 41 42 42 43 43 44 45 47 48 51 53 56 58 61 64 67 71 74 77 79 81 84 85 87 89 91 93 94 95 96 96 96 95 93 91 90 89 88 88 87 85 83 82 82 81 81 80 79 76 73 71 70 70 70 69 68 68 68 68 68 69 70 69 68 66 64 63 63
Wind_Direction
242 243 245 245 244 244 244 244 245 246 247 248 248 249 251 252 253 254 254 254 253 253 258 262 267 267 251 240 242 246 251 255 257 257 254 252 248 241 240 246 250 251 250 250 252 253 254 256 258 261 265 268 270 272 274 275 274 272 272 272 273 275 276 277 279 280 281 282 283 285 286 286 287 289 290 292 293 294 295 296 296 295 292 286 278 269 262
241 242 244 245 245 245 245 245 245 245 246 248 249 249 250 251 252 252 252 252 250 251 255 260 270 269 252 243 243 247 251 255 256 257 254 252 251 246 241 243 248 250 249 249 252 253 254 255 256 258 262 265 268 270 272 274 275 275 275 275 276 278 279 281 283 284 285 287 288 289 290 291 292 294 296 297 298 299 300 300 301 300 296 289 280 269 261
242 241 244 244 246 247 246 245 245 244 245 246 247 248 248 250 251 252 253 253 249 249 256 262 260 255 249 246 245 247 251 253 253 254 253 252 253 251 246 243 246 248 248 250 253 255 255 255 255 256 258 261 265 268 270 273 275 277 277 278 278 279 282 284 286 288 288 290 291 292 293 294 296 298 299 301 302 303 304 305 306 304 300 291 280 268 260
244 241 244 246 246 247 246 244 243 243 243 244 246 247 247 249 251 252 252 252 250 253 259 257 252 251 251 250 249 249 252 254 255 254 255 255 254 254 250 246 245 246 248 251 254 256 256 255 255 255 256 258 262 265 268 271 274 277 278 280 281 281 284 287 289 291 292 293 294 295 296 298 299 301 303 304 306 307 308 309 310 308 301 290 277 266 259
244 239 242 244 244 245 243 241 242 243 244 244 245 245 245 246 248 250 251 252 254 256 255 252 253 254 253 251 249 248 249 253 254 254 255 256 255 254 251 247 246 247 249 253 254 255 256 255 254 254 255 257 260 263 266 269 272 276 278 280 282 283 285 289 291 293 294 295 296 297 299 301 303 304 306 307 310 311 312 314 313 309 299 285 272 263 258
244 238 237 241 242 242 240 239 240 242 243 243 244 243 243 246 247 249 251 252 252 253 253 254 255 253 250 247 245 245 246 249 253 256 258 258 256 253 251 248 247 248 250 253 253 253 255 255 253 254 255 256 258 260 264 267 270 274 277 279 282 283 286 289 292 294 295 296 297 299 301 303 305 307 309 311 313 315 316 317 315 307 293 278 269 262 258
245 239 238 241 241 240 238 237 236 237 238 241 243 243 243 245 248 249 251 251 251 254 255 253 252 251 248 246 245 246 248 250 255 260 262 260 256 254 253 250 249 249 250 251 252 252 254 255 253 253 255 256 256 258 261 264 267 271 274 278 281 283 285 288 291 294 295 297 298 300 303 305 308 310 311 314 316 317 319 318 313 304 290 277 270 263 257
244 241 239 242 242 239 236 235 233 234 236 240 244 244 242 245 249 250 251 250 249 252 253 251 251 249 246 245 245 247 249 253 258 261 259 258 256 254 253 251 249 248 248 249 250 252 254 254 253 252 254 255 255 256 258 260 264 268 272 275 279 282 284 286 290 293 295 297 299 302 305 308 310 312 313 315 317 319 320 318 311 302 289 278 270 263 256
243 243 242 244 245 240 234 233 234 236 238 242 246 247 242 243 248 249 248 247 247 249 250 249 249 248 245 244 246 249 252 254 255 254 253 254 255 254 252 251 250 248 248 249 251 252 253 253 252 252 253 254 255 255 256 258 261 265 269 273 277 280 282 284 288 291 294 298 301 303 307 309 311 313 315 317 318 319 320 318 311 302 291 279 270 262 253
243 245 245 246 245 240 233 231 234 237 239 242 247 249 241 237 244 249 248 247 246 247 247 246 246 247 246 245 247 250 250 247 247 249 250 252 253 253 251 250 249 248 248 248 249 249 250 251 251 252 254 255 255 256 257 258 259 263 267 270 274 278 281 283 287 290 294 298 302 305 308 310 312 314 316 318 320 321 321 320 314 306 294 281 269 259 248
243 244 245 245 245 240 233 229 230 235 238 240 246 249 240 232 241 248 247 247 246 246 247 245 245 247 248 247 246 245 244 244 246 249 251 253 253 252 250 249 247 245 245 245 245 246 248 250 251 252 253 255 256 257 258 257 258 261 264 267 271 275 279 281 285 289 293 298 302 306 308 310 313 315 317 319 321 322 323 322 318 311 300 284 268 254 242
242 243 244 244 244 241 234 229 229 233 236 239 244 244 236 233 244 248 245 246 248 248 249 247 245 247 249 245 241 240 242 246 249 249 249 249 249 247 246 246 245 244 244 245 245 246 248 249 251 252 254 256 257 258 258 257 257 259 262 265 269 273 276 279 283 287 292 297 302 305 308 310 313 315 318 320 321 322 324 324 322 316 305 286 266 249 238
243 244 245 244 243 241 236 232 231 233 235 238 240 238 234 239 249 251 248 247 247 247 249 248 246 246 245 242 241 241 242 245 248 249 248 248 248 247 246 245 246 246 246 245 245 246 248 250 253 255 256 257 257 258 258 257 257 259 260 263 266 270 274 277 281 286 291 296 301 305 307 309 311 315 317 319 321 324 325 326 325 321 309 289 265 246 236
244 246 247 247 244 240 237 235 234 234 235 237 237 237 239 244 250 254 254 251 247 245 247 248 248 246 244 243 243 241 240 241 244 247 247 245 245 246 244 243 243 244 245 245 246 247 249 252 254 255 256 256 256 257 257 258 259 259 260 260 262 267 272 276 280 286 290 295 300 304 306 307 310 314 318 319 322 325 326 328 328 324 313 293 268 246 232
244 246 246 246 244 240 237 237 237 236 236 238 239 241 244 247 251 255 255 252 250 249 248 247 247 246 245 243 242 240 239 238 238 239 239 238 239 241 241 241 240 240 242 243 244 245 247 250 252 253 254 255 256 258 259 260 261 262 263 262 260 262 269 275 280 285 289 294 298 302 304 305 308 313 317 320 322 325 327 329 330 327 315 293 270 246 226
243 246 245 246 247 243 237 236 237 238 238 239 241 243 245 248 251 252 250 249 249 250 248 245 244 243 242 242 241 239 238 235 233 233 234 236 240 243 243 241 239 238 238 238 238 240 243 246 249 252 254 256 257 259 261 264 266 267 267 266 262 260 266 273 279 284 288 292 296 299 301 303 306 311 317 320 322 325 328 330 330 328 315 288 269 245 223
243 246 248 248 247 241 235 234 236 239 239 239 239 240 242 245 247 247 246 245 246 247 246 244 242 241 239 239 240 239 237 235 233 234 236 239 242 244 244 241 238 236 235 235 236 239 241 245 250 253 255 257 258 260 263 267 270 271 271 269 264 261 264 270 277 283 288 290 292 295 298 300 303 308 315 319 321 324 328 330 330 328 312 279 261 242 222
243 244 246 245 242 238 236 236 237 240 241 241 240 239 241 243 245 246 246 245 244 245 245 244 241 240 239 238 238 238 237 236 235 236 239 241 242 241 240 238 236 236 236 239 241 244 247 250 253 255 257 259 260 261 264 268 270 272 273 272 269 266 264 267 273 280 286 288 289 290 293 296 300 305 313 318 320 322 326 329 330 327 312 268 246 237 225
243 242 243 243 243 241 239 236 235 238 241 242 240 239 240 242 244 244 245 245 244 244 245 245 243 242 240 239 238 237 237 237 239 240 240 240 239 236 234 234 235 236 241 248 252 255 256 255 256 258 259 260 262 263 265 268 270 273 274 274 273 272 268 268 271 277 283 286 285 286 289 292 296 301 309 316 319 320 324 327 328 326 312 263 230 228 225
245 244 243 242 243 242 239 235 232 235 240 242 242 240 239 241 243 244 244 243 243 243 243 244 244 244 243 242 241 240 239 239 240 240 239 237 234 232 230 232 234 237 245 253 258 260 261 260 260 260 260 261 263 263 266 269 270 273 274 275 276 277 275 273 274 277 281 283 281 281 284 288 291 296 303 312 317 318 321 324 326 323 312 269 223 217 219
249 248 244 241 242 242 240 236 235 237 242 246 246 242 238 238 241 244 244 243 242 243 243 244 244 245 244 244 243 242 242 241 238 236 234 231 229 228 228 230 233 238 246 252 255 258 261 261 261 262 262 263 264 265 267 269 271 273 274 275 277 278 278 277 277 278 279 279 277 277 280 283 286 290 296 305 312 316 317 319 322 321 312 280 229 210 211
250 250 246 242 242 242 240 238 239 241 246 250 249 243 237 235 237 241 243 242 241 241 242 243 244 244 244 244 243 242 240 237 233 230 227 226 225 225 228 232 236 241 246 250 253 256 259 260 261 262 264 266 266 267 270 271 273 273 274 275 276 277 277 278 278 278 278 275 273 273 275 278 280 283 289 296 304 311 313 313 317 318 309 286 248 214 207
248 249 248 245 244 243 241 240 241 242 244 247 248 244 239 236 236 238 239 239 238 238 239 239 240 241 241 240 239 238 235 232 231 228 225 224 225 229 234 238 241 244 247 251 255 257 258 259 260 263 266 267 269 271 273 274 274 273 274 275 276 277 277 278 278 278 276 273 271 270 271 273 275 276 280 286 293 302 307 307 310 313 306 290 265 225 210
244 245 247 247 245 244 242 241 242 243 243 244 245 245 242 238 236 238 237 235 235 236 237 237 237 237 237 236 234 233 232 232 233 233 231 231 233 236 239 242 244 247 250 252 255 257 258 259 260 263 266 268 270 271 272 273 273 273 274 275 276 276 277 278 278 278 276 271 269 268 268 269 270 270 272 276 281 290 298 300 300 303 303 291 264 232 216
240 241 244 245 245 244 242 241 242 242 242 242 243 244 243 238 236 236 237 235 233 234 235 236 236 235 235 236 236 234 234 235 237 237 238 238 239 240 241 243 247 250 252 252 254 257 259 260 261 264 267 269 270 271 271 270 271 272 273 274 275 275 276 277 278 278 275 271 268 267 265 265 266 266 265 267 271 277 285 291 289 289 293 285 254 231 220
239 240 241 243 243 242 241 240 241 241 242 242 243 243 243 241 237 235 234 232 231 231 231 233 235 235 234 235 237 237 238 238 238 238 238 239 240 241 243 245 248 250 251 252 256 260 261 261 262 264 267 269 270 271 270 268 268 269 271 273 274 274 275 276 277 276 275 271 267 266 264 263 262 262 262 262 264 267 271 277 278 273 274 272 251 232 222
233 236 238 240 241 241 240 240 241 241 241 240 239 239 240 241 238 234 232 231 231 230 230 231 234 235 235 235 235 237 237 238 237 237 237 237 239 240 242 244 247 250 252 255 259 262 262 263 264 266 268 270 270 270 270 269 268 269 269 270 272 273 274 275 276 276 274 271 267 265 263 262 259 259 260 260 260 259 259 264 269 267 262 259 248 233 224
225 229 232 236 238 239 238 238 238 237 236 235 235 235 235 233 231 229 229 230 231 232 232 232 234 235 236 236 235 235 235 235 236 236 236 237 238 240 242 244 246 249 253 256 258 260 262 264 266 268 270 270 270 269 269 269 269 269 269 269 270 272 272 273 274 276 275 272 268 264 263 261 259 257 257 257 256 253 251 254 259 260 256 251 243 234 225
221 223 225 229 233 235 235 234 233 233 233 233 233 234 233 231 228 224 224 226 228 229 231 233 235 236 237 238 238 237 237 236 236 237 237 238 240 241 242 243 245 248 251 253 255 259 262 264 266 268 269 269 269 268 267 267 268 268 268 268 268 269 270 271 271 273 274 273 269 264 261 261 259 256 254 253 252 250 246 246 250 252 250 247 241 234 225
217 219 220 222 225 228 230 230 230 231 232 232 231 232 232 233 231 228 226 226 227 228 229 232 234 236 238 239 240 241 241 240 241 241 240 240 240 241 242 243 245 247 249 252 256 260 263 265 265 266 266 266 266 266 265 265 266 266 266 266 266 267 268 269 269 270 272 272 270 265 261 259 259 257 254 251 249 248 244 241 242 246 246 242 237 232 224
211 213 215 217 220 222 224 224 225 228 231 232 232 232 233 233 233 232 231 232 232 232 232 233 234 236 238 240 242 243 244 244 245 245 245 244 243 242 241 242 244 246 250 254 259 262 264 263 262 261 261 262 263 264 263 263 263 264 263 263 264 264 265 266 268 269 270 270 269 266 261 257 256 256 255 251 248 246 244 240 238 239 241 239 234 228 224
209 210 213 216 219 220 222 222 223 225 228 230 231 232 233 234 235 234 234 235 236 237 237 237 238 238 239 241 243 244 245 246 247 247 247 247 244 242 242 242 243 247 251 255 258 261 262 262 260 259 259 259 259 260 260 260 261 261 261 261 262 262 263 264 266 267 268 269 269 266 261 256 252 251 252 252 250 246 244 241 238 236 236 236 233 229 225
215 213 213 214 216 219 220 222 223 225 225 226 227 228 229 232 234 234 235 236 238 239 240 241 241 241 242 243 244 244 245 246 247 247 247 246 245 244 245 245 246 249 252 255 257 259 260 261 262 262 261 260 258 257 258 258 258 258 258 259 260 261 262 263 264 265 266 268 268 266 262 257 252 248 247 249 250 248 245 242 240 237 234 233 232 231 229
221 218 216 215 215 216 218 220 222 223 224 224 225 225 226 229 232 234 235 237 238 239 241 242 243 243 244 245 245 245 244 245 246 247 247 248 248 247 247 247 247 249 251 253 255 256 258 260 262 263 264 263 261 258 257 256 256 256 256 257 258 259 261 262 262 263 265 266 266 265 263 260 256 250 245 243 245 248 247 244 241 239 236 233 232 231 230
225 222 220 219 218 218 219 220 221 222 222 222 223 224 225 228 231 233 234 236 238 239 240 242 243 243 244 245 246 246 246 245 245 247 248 249 250 250 249 247 246 246 247 249 252 255 257 260 262 264 265 266 264 261 257 255 253 253 254 255 255 257 258 260 261 261 262 262 263 263 262 259 256 253 249 244 241 243 245 245 244 243 240 236 234 233 232
227 224 222 220 220 221 221 221 221 222 223 222 223 225 227 228 231 233 235 237 238 240 241 242 243 243 244 244 245 246 246 246 246 247 248 250 252 252 252 250 247 244 245 248 252 256 259 261 263 264 265 265 264 262 258 255 253 252 252 252 253 254 255 257 259 260 260 261 260 259 258 257 254 253 252 249 244 242 242 243 242 242 242 239 237 235 234
229 227 225 222 221 221 221 221 221 223 225 226 227 230 232 234 235 237 239 240 242 243 244 245 245 245 245 246 246 246 247 247 247 248 249 251 253 254 254 253 250 248 247 250 254 258 261 263 264 264 264 265 264 261 258 256 255 253 251 250 250 252 253 255 256 257 259 259 258 256 255 254 253 250 251 252 250 246 244 243 242 241 241 240 240 239 237
233 231 229 226 223 222 221 222 222 224 227 230 232 234 236 237 238 238 239 240 242 244 245 246 247 247 248 248 248 248 249 249 249 249 250 251 252 254 254 253 253 253 253 255 257 260 262 263 264 263 262 261 260 257 255 255 256 255 253 251 249 250 251 253 254 255 256 257 257 254 252 252 251 248 247 248 248 247 246 244 242 241 240 239 239 240 240
237 234 233 230 228 226 224 223 223 225 226 228 231 232 233 234 236 236 236 237 238 240 243 245 247 249 250 250 251 251 252 253 253 252 252 252 253 254 255 255 255 256 258 259 260 261 262 262 261 260 257 255 255 253 252 253 254 256 256 256 253 251 251 252 252 253 254 255 255 254 253 251 250 248 245 244 244 244 245 243 241 239 240 240 239 239 240
242 239 237 235 233 231 229 227 226 226 226 225 226 227 229 231 233 234 234 235 237 239 242 244 247 250 251 252 252 253 253 254 255 255 254 254 254 255 256 257 258 259 260 260 260 261 261 260 259 257 254 251 250 250 249 250 251 253 254 256 256 255 253 252 252 252 252 253 253 254 253 251 250 248 245 244 243 244 245 245 243 240 237 237 238 238 238
244 243 241 239 237 235 233 231 230 231 230 229 227 227 227 229 233 235 237 238 240 241 243 244 246 248 249 250 250 251 251 251 252 253 254 255 256 256 257 258 258 258 258 258 257 258 258 258 257 255 253 251 250 249 249 248 249 250 251 253 255 256 254 252 251 251 251 250 251 252 251 250 248 246 244 243 244 246 247 247 247 245 240 236 234 235 235
242 243 244 243 240 239 237 235 234 234 234 234 233 233 231 231 233 237 240 241 240 241 241 241 241 242 243 244 245 245 246 246 247 248 249 251 253 253 254 255 254 254 254 254 254 254 254 255 255 253 251 250 249 248 247 247 248 249 249 251 254 255 253 250 249 250 250 249 248 249 249 248 246 244 242 241 241 244 246 245 245 246 245 241 237 234 233
248 245 245 245 244 242 241 240 239 238 237 237 236 236 236 235 236 238 240 240 239 238 238 237 236 236 236 236 238 239 241 241 241 242 243 244 245 246 246 246 247 247 248 249 250 250 250 250 251 250 249 247 246 244 244 245 246 248 249 252 254 255 252 248 247 248 249 249 247 246 246 245 245 244 243 242 241 243 244 244 243 243 244 244 242 240 238
251 248 246 247 247 246 244 243 242 241 241 240 239 238 238 238 238 238 239 239 239 238 237 236 234 234 233 233 234 235 236 236 237 238 239 239 239 240 240 240 240 241 243 244 245 246 247 246 245 245 243 242 241 240 241 242 244 246 248 250 253 254 252 249 247 246 247 249 248 247 245 244 244 243 243 242 242 244 245 245 244 243 242 242 242 241 239
251 250 247 246 245 244 244 244 243 242 242 242 241 240 240 240 241 240 240 240 241 241 240 238 237 236 236 236 235 235 235 235 235 236 237 237 235 235 237 238 238 237 238 238 239 240 241 241 241 240 240 239 238 238 238 239 240 242 244 247 249 251 251 249 247 246 246 246 247 247 246 245 244 243 242 241 241 242 244 245 245 244 243 241 240 238 237
251 251 250 249 248 246 244 243 242 242 241 241 241 241 241 242 242 243 242 242 242 242 243 242 241 241 241 240 239 238 237 236 237 238 239 239 237 235 235 236 236 236 236 237 236 235 235 235 236 236 238 239 241 242 242 241 239 239 239 241 243 246 247 247 247 247 246 245 245 245 245 245 243 242 242 242 242 241 242 243 244 244 244 243 241 239 238
255 256 256 256 255 254 252 250 247 244 242 240 240 240 240 241 241 241 242 242 242 242 243 243 243 243 244 244 243 241 240 240 240 240 241 242 242 240 238 238 238 238 238 240 241 239 238 237 237 236 236 237 240 244 247 248 247 244 242 240 239 240 243 246 248 248 248 248 246 245 244 244 243 242 242 242 243 242 242 242 243 243 243 243 242 242 241
256 259 261 262 261 260 259 258 256 254 251 248 244 242 241 240 239 238 238 239 239 240 240 241 242 242 244 245 246 246 245 244 244 243 243 243 245 245 245 244 244 244 245 246 247 247 246 246 245 245 245 245 246 248 250 251 252 251 249 248 245 243 244 247 249 251 251 251 251 249 247 246 245 244 243 243 244 244 244 244 244 243 243 243 243 243 243
254 257 260 262 263 263 262 260 260 260 259 257 255 252 249 245 242 240 238 238 237 237 237 238 239 240 241 243 245 247 248 248 247 247 247 246 247 247 248 248 249 250 252 253 253 253 253 253 254 255 255 256 256 257 257 258 258 257 256 254 253 252 251 251 252 253 254 254 255 254 252 250 249 248 247 246 245 245 246 246 245 245 244 243 243 242 243
252 254 257 260 261 262 263 262 261 261 261 259 258 257 255 253 250 247 244 242 240 239 238 237 237 238 239 240 241 243 245 246 246 247 248 249 249 250 250 250 251 253 255 256 256 256 257 258 259 260 261 261 262 262 262 262 262 262 261 260 259 258 257 257 256 256 256 257 257 258 257 256 253 251 250 249 248 246 246 246 247 247 247 246 245 244 243
247 250 253 256 257 259 261 261 261 261 261 260 259 258 257 257 256 254 252 250 248 245 243 242 240 240 240 240 240 241 242 243 244 245 247 249 250 251 251 252 253 254 255 256 256 257 258 259 260 261 262 263 263 262 262 262 262 262 262 262 261 260 259 259 259 260 260 259 259 259 260 259 257 254 252 252 251 250 248 246 245 246 247 248 248 247 246
238 242 246 249 252 255 258 259 260 260 261 261 261 260 260 259 259 258 258 257 256 255 253 251 249 247 245 244 244 244 244 245 246 247 248 250 251 252 253 253 254 254 254 253 254 254 255 257 258 259 260 261 260 260 260 260 260 260 260 260 259 259 258 258 259 260 261 261 261 260 259 259 259 258 256 254 253 252 252 250 248 246 245 245 246 247 247
Height
5539 5540 5538 5541 5545 5546 5549 5551 5553 5556 5556 5554 5555 5561 5567 5566 5561 5565 5574 5577 5577 5581 5583 5583 5588 5590 5591 5592 5590 5587 5586 5585 5587 5590 5592 5592 5594 5597 5600 5599 5599 5601 5602 5603 5604 5604 5605 5605 5606 5606 5607 5607 5608 5608 5608 5609 5609 5610 5611 5611 5611 5612 5612 5612 5611 5611 5610 5610 5609 5609 5608 5607 5606 5605 5604 5602 5600 5598 5596 5593 5590 5587 5583 5579 5575 5572 5569
5529 5531 5530 5533 5535 5535 5539 5542 5545 5547 5547 5548 5552 5557 5560 5556 5554 5561 5566 5566 5571 5576 5576 5580 5584 5583 5582 5582 5582 5581 5581 5580 5581 5582 5583 5584 5587 5590 5594 5594 5594 5595 5596 5597 5598 5598 5599 5600 5600 5601 5602 5602 5603 5603 5603 5604 5604 5605 5605 5606 5606 5606 5606 5606 5605 5605 5604 5603 5603 5602 5601 5599 5598 5596 5595 5593 5590 5588 5585 5582 5578 5574 5568 5564 5560 5557 5554
5517 5522 5523 5525 5525 5526 5529 5530 5533 5538 5541 5544 5547 5550 5551 5547 5548 5557 5558 5556 5563 5571 5573 5576 5577 5575 5574 5574 5576 5577 5575 5573 5574 5573 5574 5578 5581 5584 5587 5588 5588 5588 5590 5591 5592 5592 5593 5594 5595 5595 5596 5597 5597 5597 5598 5599 5599 5600 5600 5600 5600 5601 5600 5600 5600 5599 5598 5597 5596 5595 5594 5592 5590 5588 5586 5583 5581 5577 5573 5569 5565 5559 5553 5548 5545 5542 5540
5505 5517 5517 5515 5518 5517 5514 5516 5525 5532 5535 5538 5541 5543 5544 5542 5544 5549 5548 5547 5558 5568 5569 5567 5566 5566 5567 5569 5571 5571 5569 5566 5565 5565 5568 5573 5577 5579 5580 5580 5581 5582 5584 5585 5586 5586 5587 5588 5589 5590 5591 5591 5592 5592 5592 5593 5594 5594 5594 5594 5594 5594 5594 5594 5593 5592 5591 5590 5589 5588 5586 5584 5582 5580 5577 5574 5570 5566 5562 5557 5551 5545 5538 5534 5530 5529 5528
5497 5509 5506 5505 5509 5499 5494 5509 5525 5529 5531 5533 5533 5533 5535 5536 5538 5538 5538 5544 5555 5559 5557 5557 5559 5561 5562 5563 5564 5564 5563 5558 5555 5557 5564 5569 5572 5573 5573 5573 5574 5576 5578 5579 5580 5580 5581 5583 5584 5584 5585 5586 5586 5587 5587 5588 5588 5588 5589 5589 5588 5588 5588 5587 5586 5585 5584 5584 5582 5580 5579 5576 5574 5571 5567 5564 5559 5555 5550 5544 5537 5531 5525 5521 5519 5518 5518
5487 5496 5495 5494 5486 5475 5487 5515 5525 5523 5525 5524 5521 5522 5527 5529 5530 5531 5534 5541 5547 5547 5548 5552 5553 5553 5554 5556 5556 5556 5555 5551 5548 5553 5561 5565 5566 5565 5565 5566 5568 5570 5571 5572 5573 5575 5575 5577 5578 5578 5579 5580 5581 5581 5582 5582 5583 5583 5583 5583 5582 5582 5581 5580 5579 5578 5577 5576 5575 5573 5571 5569 5566 5562 5558 5554 5549 5543 5537 5531 5524 5518 5513 5509 5508 5507 5508
5475 5484 5484 5472 5460 5469 5498 5515 5513 5512 5514 5511 5509 5514 5520 5522 5523 5527 5530 5535 5539 5540 5542 5544 5544 5544 5546 5548 5548 5548 5546 5545 5547 5552 5557 5558 5557 5558 5559 5560 5562 5563 5565 5566 5567 5568 5569 5570 5572 5572 5573 5574 5575 5576 5576 5576 5577 5577 5576 5576 5576 5575 5575 5573 5572 5571 5570 5569 5568 5566 5564 5561 5557 5554 5549 5544 5539 5532 5526 5519 5512 5506 5501 5497 5495 5494 5495
5464 5469 5465 5454 5456 5478 5497 5499 5498 5503 5505 5503 5503 5507 5512 5517 5519 5521 5524 5528 5532 5533 5533 5536 5537 5537 5537 5537 5539 5540 5540 5544 5547 5548 5549 5549 5549 5552 5554 5554 5555 5556 5558 5559 5560 5562 5563 5564 5566 5566 5567 5568 5569 5570 5570 5570 5571 5571 5570 5570 5570 5569 5568 5567 5566 5565 5564 5562 5560 5558 5556 5553 5549 5545 5540 5535 5529 5522 5515 5509 5502 5495 5490 5484 5480 5478 5481
5453 5455 5453 5452 5458 5469 5479 5487 5496 5501 5500 5500 5498 5497 5505 5513 5513 5513 5517 5521 5525 5526 5527 5529 5529 5527 5527 5529 5534 5537 5538 5541 5541 5538 5539 5541 5542 5546 5547 5547 5548 5550 5551 5553 5554 5555 5556 5557 5559 5560 5561 5562 5563 5563 5564 5565 5565 5565 5564 5564 5563 5562 5562 5560 5559 5558 5557 5555 5553 5551 5548 5545 5541 5537 5532 5527 5521 5514 5507 5500 5493 5485 5478 5471 5466 5465 5467
5445 5446 5446 5446 5445 5452 5471 5489 5496 5495 5493 5493 5490 5487 5496 5507 5506 5506 5510 5514 5517 5518 5519 5521 5521 5518 5518 5525 5533 5534 5532 5531 5530 5529 5533 5536 5537 5539 5541 5541 5542 5544 5545 5546 5547 5548 5550 5551 5552 5553 5554 5555 5556 5557 5558 5559 5559 5559 5558 5558 5557 5556 5555 5554 5553 5552 5550 5548 5546 5543 5541 5537 5534 5529 5525 5519 5513 5506 5499 5492 5484 5476 5467 5459 5455 5454 5457
5434 5434 5434 5433 5433 5448 5473 5487 5487 5483 5482 5485 5482 5477 5487 5501 5502 5500 5503 5506 5508 5509 5511 5513 5513 5511 5515 5525 5530 5525 5521 5522 5523 5525 5529 5530 5531 5533 5533 5534 5535 5536 5537 5539 5540 5542 5543 5544 5545 5546 5547 5548 5549 5550 5552 5552 5552 5552 5552 5552 5551 5550 5549 5548 5546 5545 5543 5541 5539 5536 5534 5531 5527 5522 5517 5512 5505 5498 5491 5484 5476 5466 5458 5451 5448 5447 5450
5423 5425 5424 5424 5428 5446 5468 5476 5475 5473 5475 5477 5471 5468 5483 5496 5491 5489 5497 5499 5499 5502 5503 5504 5506 5508 5513 5519 5518 5514 5515 5518 5518 5520 5522 5522 5523 5524 5525 5526 5528 5529 5530 5532 5534 5536 5537 5537 5537 5539 5540 5542 5543 5543 5545 5545 5545 5546 5545 5545 5545 5544 5543 5542 5540 5539 5537 5534 5532 5530 5527 5524 5521 5516 5511 5505 5499 5492 5485 5477 5468 5459 5451 5445 5443 5443 5445
5416 5415 5415 5417 5424 5442 5462 5468 5467 5467 5466 5463 5459 5467 5485 5486 5475 5480 5492 5494 5494 5496 5495 5495 5500 5503 5506 5508 5507 5508 5512 5512 5511 5513 5515 5515 5516 5518 5518 5520 5521 5522 5524 5526 5527 5528 5529 5529 5531 5532 5533 5535 5535 5536 5537 5538 5538 5539 5539 5539 5539 5538 5537 5536 5534 5533 5531 5528 5526 5524 5521 5519 5515 5511 5506 5500 5494 5487 5479 5471 5463 5454 5447 5442 5440 5440 5442
5406 5408 5411 5411 5416 5437 5455 5459 5457 5456 5452 5452 5461 5474 5478 5471 5470 5480 5486 5486 5489 5489 5487 5490 5493 5495 5498 5501 5502 5503 5505 5506 5507 5507 5508 5509 5511 5512 5513 5514 5515 5516 5517 5518 5519 5521 5522 5523 5525 5526 5526 5528 5528 5529 5530 5531 5531 5532 5533 5533 5533 5532 5531 5530 5529 5527 5525 5523 5521 5518 5516 5513 5510 5506 5501 5495 5489 5483 5475 5467 5459 5451 5445 5441 5438 5438 5439
5400 5401 5400 5398 5408 5433 5449 5448 5446 5447 5449 5456 5466 5469 5465 5465 5473 5477 5477 5480 5482 5480 5481 5485 5485 5487 5491 5493 5494 5496 5498 5500 5501 5501 5502 5504 5505 5507 5508 5509 5509 5510 5511 5512 5513 5514 5515 5516 5518 5519 5520 5521 5521 5522 5523 5523 5523 5525 5526 5526 5527 5527 5525 5524 5523 5521 5519 5518 5516 5513 5510 5508 5505 5502 5497 5491 5485 5479 5472 5465 5457 5449 5444 5441 5438 5437 5438
5391 5388 5388 5395 5413 5433 5438 5437 5440 5443 5448 5453 5455 5453 5457 5463 5466 5466 5468 5472 5471 5471 5474 5477 5476 5480 5483 5484 5486 5489 5490 5492 5495 5495 5497 5499 5499 5502 5503 5503 5504 5505 5505 5506 5507 5508 5509 5510 5511 5512 5513 5514 5515 5516 5516 5515 5515 5517 5519 5519 5520 5520 5519 5518 5518 5516 5514 5513 5511 5509 5506 5503 5500 5497 5493 5488 5482 5476 5470 5463 5456 5449 5444 5442 5440 5439 5440
5381 5383 5389 5400 5413 5421 5422 5427 5435 5436 5437 5439 5440 5443 5449 5451 5451 5455 5459 5459 5461 5464 5466 5467 5469 5472 5474 5476 5479 5481 5482 5485 5487 5488 5490 5492 5493 5496 5497 5498 5499 5500 5500 5501 5501 5502 5504 5505 5505 5506 5507 5508 5509 5509 5509 5509 5509 5511 5512 5512 5513 5513 5513 5513 5512 5511 5509 5508 5506 5504 5502 5499 5496 5493 5489 5484 5479 5473 5468 5461 5455 5450 5446 5443 5442 5442 5444
5375 5378 5383 5390 5400 5408 5413 5422 5428 5427 5427 5430 5432 5436 5441 5442 5443 5446 5447 5449 5454 5456 5456 5458 5462 5464 5466 5469 5471 5473 5475 5477 5478 5481 5483 5485 5487 5489 5491 5492 5493 5494 5495 5496 5496 5497 5498 5499 5500 5501 5501 5502 5503 5503 5503 5504 5504 5504 5505 5505 5506 5507 5507 5507 5506 5505 5504 5503 5501 5500 5497 5495 5492 5489 5486 5482 5476 5471 5466 5461 5455 5451 5447 5445 5444 5445 5447
5363 5366 5372 5383 5396 5404 5407 5412 5417 5417 5417 5419 5422 5428 5434 5436 5435 5435 5437 5441 5445 5446 5448 5451 5453 5456 5460 5462 5463 5466 5468 5469 5471 5474 5476 5477 5480 5482 5483 5485 5487 5488 5490 5490 5490 5491 5492 5493 5494 5495 5495 5497 5497 5497 5498 5498 5498 5498 5499 5499 5499 5499 5500 5501 5501 5500 5499 5497 5497 5495 5493 5491 5489 5486 5483 5479 5475 5470 5465 5460 5455 5451 5448 5446 5446 5447 5449
5352 5358 5370 5383 5389 5392 5396 5401 5405 5408 5409 5411 5416 5422 5427 5427 5426 5426 5429 5432 5435 5438 5441 5442 5445 5449 5453 5454 5457 5460 5461 5462 5465 5467 5468 5471 5473 5474 5476 5479 5480 5482 5484 5484 5484 5485 5486 5487 5489 5489 5490 5491 5491 5492 5493 5493 5492 5493 5493 5492 5492 5492 5493 5495 5494 5494 5493 5492 5491 5491 5489 5487 5485 5483 5480 5477 5473 5469 5465 5460 5456 5452 5449 5448 5447 5447 5449
5344 5351 5363 5372 5375 5378 5387 5394 5399 5404 5406 5406 5409 5413 5416 5417 5417 5418 5420 5423 5427 5430 5432 5435 5439 5442 5444 5446 5450 5452 5454 5456 5458 5459 5461 5464 5465 5467 5470 5472 5473 5476 5477 5477 5478 5479 5479 5481 5482 5483 5484 5485 5485 5486 5487 5487 5487 5487 5487 5487 5487 5486 5487 5488 5488 5487 5487 5486 5486 5486 5485 5483 5482 5480 5477 5474 5471 5468 5464 5460 5456 5452 5450 5449 5448 5448 5449
5335 5342 5353 5363 5366 5371 5381 5390 5395 5399 5400 5398 5398 5399 5401 5404 5408 5409 5410 5414 5417 5421 5424 5427 5430 5433 5435 5438 5441 5444 5447 5450 5450 5452 5455 5456 5458 5461 5462 5464 5466 5469 5470 5471 5472 5473 5473 5475 5476 5477 5478 5478 5479 5481 5481 5481 5482 5482 5481 5482 5482 5481 5481 5481 5481 5481 5481 5481 5481 5481 5480 5479 5478 5476 5474 5472 5469 5466 5463 5460 5457 5453 5450 5449 5449 5449 5451
5331 5340 5350 5357 5358 5363 5374 5382 5385 5388 5389 5387 5386 5388 5390 5394 5397 5399 5400 5403 5407 5410 5414 5418 5420 5423 5426 5429 5432 5436 5439 5441 5442 5445 5448 5449 5452 5454 5455 5457 5460 5462 5463 5465 5466 5466 5467 5469 5470 5471 5472 5472 5473 5475 5475 5475 5476 5476 5476 5477 5476 5476 5475 5475 5475 5476 5476 5476 5476 5476 5476 5475 5474 5472 5471 5469 5467 5465 5462 5459 5457 5454 5451 5449 5450 5451 5453
5330 5337 5344 5348 5348 5352 5364 5373 5374 5374 5375 5374 5376 5380 5383 5384 5387 5389 5390 5393 5397 5400 5404 5408 5411 5414 5417 5420 5424 5429 5431 5432 5435 5438 5440 5442 5445 5446 5448 5451 5453 5454 5456 5458 5459 5460 5461 5462 5464 5465 5465 5466 5468 5469 5469 5470 5470 5470 5471 5471 5471 5471 5470 5470 5470 5471 5471 5471 5471 5471 5471 5471 5470 5469 5468 5466 5465 5463 5461 5459 5456 5454 5452 5450 5450 5452 5454
5322 5329 5336 5338 5337 5341 5352 5359 5358 5358 5361 5364 5369 5375 5376 5376 5379 5381 5382 5384 5388 5391 5395 5398 5401 5404 5407 5411 5416 5420 5423 5426 5428 5430 5433 5436 5437 5439 5441 5443 5445 5447 5449 5451 5453 5454 5455 5456 5458 5459 5459 5461 5462 5463 5464 5464 5464 5464 5465 5465 5465 5466 5465 5465 5465 5465 5466 5466 5466 5465 5466 5466 5466 5465 5464 5463 5462 5461 5460 5458 5456 5454 5452 5450 5449 5450 5452
5312 5320 5326 5326 5324 5329 5338 5343 5345 5349 5355 5360 5364 5368 5369 5370 5372 5373 5373 5375 5378 5382 5385 5388 5391 5394 5398 5402 5406 5410 5414 5418 5421 5423 5426 5428 5430 5432 5434 5435 5437 5440 5442 5444 5446 5447 5448 5450 5451 5452 5453 5455 5456 5457 5458 5458 5458 5458 5459 5459 5460 5460 5460 5460 5460 5460 5460 5461 5461 5460 5461 5461 5462 5461 5460 5459 5459 5459 5458 5457 5455 5453 5451 5450 5449 5449 5449
5303 5310 5316 5315 5315 5320 5328 5335 5341 5346 5350 5352 5355 5359 5362 5363 5363 5363 5364 5366 5369 5372 5376 5380 5382 5384 5388 5393 5397 5401 5405 5408 5412 5415 5418 5420 5422 5424 5425 5427 5430 5432 5434 5436 5438 5439 5441 5443 5444 5446 5447 5448 5449 5451 5452 5452 5453 5453 5453 5453 5454 5454 5455 5455 5455 5455 5455 5456 5456 5456 5456 5456 5457 5457 5457 5457 5457 5456 5455 5455 5454 5452 5451 5449 5448 5448 5448
5295 5301 5305 5305 5307 5313 5320 5327 5332 5335 5337 5339 5344 5349 5353 5355 5355 5355 5356 5359 5362 5364 5368 5372 5374 5375 5379 5384 5387 5391 5395 5399 5402 5406 5409 5411 5413 5415 5417 5419 5422 5424 5426 5428 5429 5431 5433 5435 5437 5439 5440 5440 5442 5444 5445 5446 5447 5447 5448 5448 5448 5448 5449 5450 5450 5449 5450 5450 5451 5451 5451 5451 5451 5452 5453 5454 5454 5453 5453 5453 5452 5451 5449 5448 5447 5447 5447
5287 5292 5296 5298 5301 5305 5311 5316 5320 5322 5325 5330 5335 5339 5344 5347 5348 5349 5350 5353 5355 5357 5360 5363 5365 5367 5371 5374 5377 5382 5386 5390 5393 5397 5400 5402 5404 5406 5408 5410 5412 5415 5417 5419 5420 5423 5425 5428 5431 5432 5432 5433 5435 5437 5438 5440 5441 5441 5442 5443 5443 5443 5443 5444 5444 5444 5444 5445 5446 5446 5446 5445 5446 5447 5449 5450 5450 5450 5450 5450 5449 5448 5448 5447 5447 5447 5447
5279 5284 5288 5290 5293 5296 5301 5306 5310 5313 5316 5321 5325 5329 5333 5336 5339 5342 5345 5346 5348 5350 5353 5355 5356 5359 5363 5366 5369 5373 5376 5380 5383 5387 5390 5393 5396 5397 5399 5401 5404 5407 5409 5411 5412 5415 5417 5420 5422 5423 5423 5425 5427 5430 5432 5433 5433 5434 5435 5436 5436 5437 5437 5438 5438 5439 5439 5439 5440 5441 5441 5441 5441 5442 5444 5445 5445 5446 5447 5447 5446 5446 5446 5445 5445 5446 5446
5270 5274 5278 5280 5283 5286 5290 5295 5299 5303 5307 5311 5315 5319 5323 5326 5330 5334 5337 5339 5340 5342 5345 5347 5348 5351 5355 5358 5360 5363 5367 5370 5373 5376 5380 5383 5386 5387 5390 5393 5396 5399 5401 5402 5404 5406 5409 5411 5413 5414 5416 5418 5420 5423 5425 5426 5426 5427 5428 5429 5430 5431 5431 5431 5432 5432 5432 5433 5434 5435 5435 5436 5436 5436 5438 5439 5440 5441 5442 5442 5443 5443 5443 5443 5444 5444 5444
5260 5264 5267 5270 5273 5277 5281 5285 5289 5294 5298 5302 5305 5309 5312 5315 5319 5324 5327 5329 5331 5334 5337 5338 5341 5344 5347 5349 5352 5355 5358 5360 5364 5367 5370 5372 5374 5377 5381 5385 5388 5391 5393 5393 5395 5397 5399 5401 5404 5406 5408 5411 5413 5416 5418 5419 5419 5420 5420 5421 5422 5423 5424 5425 5426 5426 5426 5427 5428 5428 5430 5430 5431 5431 5432 5432 5434 5436 5437 5437 5438 5439 5439 5440 5441 5441 5440
5250 5254 5256 5260 5264 5269 5272 5276 5281 5285 5289 5293 5296 5299 5302 5305 5309 5313 5317 5320 5322 5325 5327 5330 5333 5336 5339 5341 5343 5346 5348 5351 5354 5357 5360 5361 5364 5369 5373 5377 5380 5382 5383 5384 5386 5388 5390 5392 5395 5397 5400 5403 5406 5408 5410 5412 5413 5412 5413 5414 5415 5415 5416 5418 5418 5419 5420 5420 5420 5421 5423 5424 5425 5426 5426 5427 5428 5429 5431 5432 5433 5434 5435 5436 5437 5437 5437
5240 5243 5247 5251 5255 5259 5263 5268 5272 5277 5281 5284 5287 5290 5293 5296 5300 5304 5308 5311 5314 5317 5319 5322 5325 5327 5330 5332 5334 5337 5339 5342 5345 5347 5350 5352 5356 5360 5364 5367 5369 5371 5373 5375 5377 5379 5382 5384 5386 5389 5392 5395 5397 5400 5402 5404 5405 5405 5405 5406 5407 5408 5409 5410 5411 5412 5413 5413 5414 5415 5416 5417 5419 5419 5420 5421 5421 5422 5424 5426 5427 5428 5430 5431 5432 5432 5433
5228 5233 5237 5242 5246 5249 5254 5258 5263 5267 5271 5275 5278 5281 5285 5288 5291 5295 5299 5303 5306 5308 5311 5313 5315 5317 5320 5322 5324 5327 5331 5334 5337 5339 5342 5344 5347 5350 5353 5357 5359 5361 5364 5366 5368 5371 5374 5376 5379 5381 5383 5386 5388 5391 5393 5395 5396 5397 5397 5397 5399 5400 5401 5402 5403 5405 5405 5406 5407 5408 5409 5410 5411 5412 5413 5414 5415 5416 5417 5419 5420 5422 5424 5425 5426 5427 5428
5218 5223 5228 5232 5236 5240 5245 5249 5253 5257 5261 5265 5269 5272 5275 5279 5283 5287 5290 5294 5297 5300 5302 5304 5306 5308 5310 5312 5315 5318 5322 5326 5329 5332 5334 5336 5338 5341 5343 5346 5349 5352 5355 5358 5360 5363 5366 5368 5370 5372 5374 5376 5379 5381 5384 5386 5388 5388 5388 5389 5390 5391 5393 5394 5395 5396 5397 5398 5400 5401 5402 5403 5404 5405 5406 5408 5409 5410 5411 5412 5414 5415 5417 5418 5420 5421 5422
5210 5214 5219 5223 5227 5231 5236 5240 5243 5247 5251 5255 5259 5262 5266 5270 5274 5278 5281 5285 5288 5291 5293 5295 5297 5298 5300 5303 5306 5309 5313 5316 5320 5323 5325 5327 5329 5331 5333 5335 5339 5343 5347 5350 5352 5355 5357 5359 5361 5363 5365 5367 5370 5372 5375 5378 5379 5380 5381 5381 5382 5383 5384 5386 5387 5388 5389 5390 5391 5393 5394 5396 5397 5398 5400 5401 5402 5403 5404 5405 5406 5408 5409 5411 5412 5414 5416
5200 5205 5209 5214 5218 5222 5226 5230 5234 5238 5241 5245 5250 5254 5257 5261 5265 5269 5272 5276 5278 5281 5284 5286 5288 5290 5292 5294 5297 5300 5303 5307 5310 5313 5315 5318 5319 5320 5322 5326 5331 5336 5339 5341 5344 5345 5347 5349 5352 5354 5356 5358 5361 5363 5366 5369 5370 5371 5372 5373 5374 5375 5376 5377 5378 5380 5381 5382 5383 5385 5387 5388 5390 5391 5392 5394 5395 5396 5397 5398 5399 5400 5401 5402 5404 5406 5409
5189 5194 5199 5204 5209 5213 5217 5221 5225 5229 5232 5236 5240 5244 5248 5252 5256 5259 5263 5266 5269 5272 5275 5277 5279 5281 5283 5285 5288 5291 5294 5297 5300 5303 5305 5307 5308 5309 5312 5318 5322 5326 5330 5332 5334 5335 5337 5340 5343 5346 5348 5350 5352 5355 5357 5359 5362 5363 5365 5366 5367 5367 5368 5368 5370 5371 5372 5373 5375 5377 5378 5380 5382 5383 5385 5386 5388 5389 5390 5391 5392 5393 5394 5395 5396 5398 5401
5180 5184 5188 5193 5198 5203 5208 5213 5217 5221 5225 5228 5231 5234 5238 5242 5246 5250 5253 5256 5260 5263 5266 5268 5271 5273 5274 5276 5279 5282 5284 5287 5289 5292 5295 5296 5297 5299 5303 5308 5312 5316 5319 5321 5323 5324 5326 5329 5333 5337 5340 5343 5344 5346 5348 5350 5353 5355 5357 5358 5359 5360 5361 5361 5362 5363 5364 5365 5366 5368 5370 5372 5374 5375 5377 5379 5380 5382 5383 5384 5385 5386 5387 5388 5389 5391 5393
5171 5174 5177 5181 5187 5192 5198 5203 5207 5212 5216 5220 5222 5225 5228 5232 5236 5240 5244 5247 5251 5254 5257 5260 5262 5264 5265 5267 5269 5272 5274 5277 5279 5281 5284 5286 5287 5289 5293 5298 5301 5304 5307 5309 5311 5313 5316 5319 5323 5328 5332 5334 5336 5337 5338 5340 5343 5345 5348 5350 5351 5352 5353 5354 5354 5355 5356 5357 5358 5360 5362 5364 5366 5368 5369 5371 5373 5375 5376 5377 5378 5379 5381 5381 5382 5384 5385
5165 5166 5169 5172 5176 5181 5186 5192 5197 5202 5206 5210 5214 5217 5220 5223 5227 5230 5234 5238 5241 5245 5248 5250 5253 5255 5256 5258 5260 5262 5264 5267 5269 5271 5274 5276 5278 5280 5283 5287 5290 5293 5295 5297 5299 5302 5304 5307 5313 5318 5321 5323 5326 5327 5328 5330 5333 5336 5338 5341 5342 5343 5345 5345 5346 5347 5348 5349 5350 5352 5354 5356 5358 5360 5361 5363 5365 5367 5369 5370 5371 5372 5374 5375 5376 5377 5378
5160 5161 5163 5165 5168 5171 5176 5180 5185 5189 5194 5199 5204 5207 5211 5215 5218 5221 5225 5228 5232 5235 5238 5240 5242 5244 5246 5248 5250 5252 5255 5257 5259 5261 5264 5267 5269 5271 5274 5276 5279 5282 5285 5286 5288 5290 5292 5296 5302 5307 5309 5311 5314 5315 5316 5319 5322 5325 5328 5331 5333 5334 5335 5337 5337 5338 5339 5341 5342 5344 5346 5348 5350 5352 5353 5355 5357 5359 5361 5363 5364 5365 5366 5367 5369 5370 5371
5155 5157 5158 5160 5162 5164 5167 5170 5173 5177 5182 5187 5191 5196 5200 5205 5208 5212 5216 5219 5222 5224 5227 5230 5232 5234 5236 5238 5240 5242 5244 5247 5249 5251 5254 5257 5260 5261 5263 5266 5269 5272 5275 5276 5277 5279 5282 5287 5292 5295 5297 5299 5302 5303 5305 5308 5311 5313 5316 5320 5323 5325 5326 5327 5329 5330 5331 5332 5334 5336 5337 5339 5341 5343 5345 5347 5349 5351 5352 5354 5356 5357 5359 5360 5361 5362 5364
5149 5151 5153 5155 5157 5158 5160 5162 5165 5168 5171 5175 5179 5183 5187 5192 5196 5201 5205 5208 5211 5214 5217 5219 5221 5223 5225 5227 5230 5232 5234 5237 5239 5240 5243 5246 5249 5251 5253 5256 5259 5262 5265 5265 5266 5269 5274 5278 5281 5283 5285 5288 5291 5293 5295 5297 5300 5302 5305 5308 5312 5315 5317 5318 5319 5321 5323 5324 5325 5327 5329 5331 5332 5334 5336 5338 5340 5342 5344 5345 5347 5349 5350 5351 5353 5354 5356
5143 5145 5147 5149 5151 5153 5155 5156 5158 5161 5163 5166 5169 5172 5175 5179 5183 5187 5191 5195 5199 5203 5206 5209 5211 5213 5214 5216 5219 5222 5224 5227 5228 5230 5232 5234 5237 5240 5243 5245 5248 5251 5254 5255 5257 5260 5264 5267 5269 5272 5275 5278 5281 5283 5285 5288 5290 5292 5294 5297 5300 5304 5306 5308 5309 5311 5313 5315 5317 5319 5320 5322 5324 5326 5327 5329 5331 5333 5335 5337 5338 5340 5341 5343 5345 5346 5347
5137 5139 5142 5143 5145 5147 5149 5151 5153 5155 5157 5159 5162 5164 5167 5170 5172 5175 5179 5182 5185 5189 5193 5196 5199 5201 5203 5205 5208 5211 5214 5216 5217 5219 5222 5224 5226 5229 5232 5234 5237 5240 5243 5245 5247 5250 5254 5256 5259 5261 5264 5267 5269 5272 5275 5278 5280 5282 5284 5286 5289 5293 5296 5298 5300 5302 5303 5305 5307 5310 5312 5314 5316 5317 5319 5320 5322 5324 5326 5328 5330 5331 5333 5334 5336 5338 5339
5132 5134 5136 5138 5139 5141 5143 5145 5147 5149 5151 5153 5155 5158 5160 5162 5164 5166 5169 5171 5173 5176 5179 5183 5186 5188 5191 5193 5196 5199 5202 5204 5206 5208 5211 5213 5215 5217 5220 5223 5225 5227 5231 5234 5236 5239 5242 5245 5248 5251 5254 5256 5258 5261 5264 5267 5270 5272 5274 5276 5278 5281 5285 5287 5289 5291 5293 5295 5297 5300 5302 5304 5307 5308 5310 5312 5313 5315 5317 5319 5321 5323 5324 5326 5327 5329 5331
5126 5129 5130 5132 5134 5136 5138 5139 5141 5143 5145 5147 5149 5151 5153 5155 5157 5159 5160 5162 5164 5166 5168 5171 5173 5175 5178 5180 5183 5186 5189 5192 5194 5196 5198 5200 5203 5206 5208 5210 5213 5215 5218 5221 5224 5227 5230 5233 5235 5238 5241 5244 5246 5249 5252 5255 5258 5261 5264 5266 5268 5270 5273 5276 5278 5281 5283 5285 5287 5290 5292 5294 5297 5299 5301 5303 5305 5306 5308 5310 5312 5314 5316 5317 5319 5321 5322
5121 5123 5125 5127 5128 5130 5132 5133 5135 5137 5139 5140 5142 5144 5146 5147 5149 5151 5153 5154 5156 5157 5159 5161 5163 5164 5166 5168 5171 5173 5176 5178 5181 5184 5186 5188 5191 5193 5195 5198 5200 5202 5204 5207 5210 5213 5216 5219 5221 5224 5227 5230 5232 5235 5239 5242 5245 5248 5251 5254 5257 5259 5261 5264 5266 5269 5271 5274 5276 5279 5281 5284 5287 5288 5290 5292 5294 5297 5298 5300 5302 5304 5306 5308 5310 5312 5314
5116 5118 5120 5122 5123 5125 5126 5128 5129 5131 5133 5134 5136 5137 5139 5140 5142 5143 5145 5146 5148 5150 5151 5152 5153 5155 5156 5158 5160 5162 5165 5167 5169 5171 5173 5176 5178 5180 5183 5185 5187 5189 5191 5194 5196 5198 5201 5204 5207 5209 5212 5215 5218 5221 5224 5227 5231 5234 5237 5240 5243 5246 5248 5251 5253 5256 5259 5262 5265 5267 5270 5272 5274 5277 5279 5281 5283 5286 5288 5290 5292 5294 5296 5298 5301 5303 5305
5112 5114 5115 5117 5118 5119 5121 5122 5124 5125 5127 5128 5130 5131 5132 5134 5135 5136 5137 5139 5140 5141 5143 5144 5145 5146 5147 5149 5150 5152 5154 5156 5158 5159 5161 5163 5165 5167 5169 5172 5174 5176 5178 5181 5182 5185 5187 5190 5193 5196 5198 5201 5203 5206 5209 5212 5215 5219 5223 5226 5229 5231 5234 5237 5239 5242 5245 5248 5252 5255 5257 5258 5261 5264 5267 5270 5272 5274 5277 5279 5282 5284 5286 5288 5290 5292 5294